[[{"header":{"parameterUnit":"m.s-1","parameterCategory":1,"la1":30.2991,"la2":30.254,"lo1":-89.0895,"lo2":-89.0444,"dy":0.0017,"dx":0.0017,"nx":28,"ny":28,"refTime":"2023-09-28T21:00:00:Z","depth":0,"parameterNumber":2,"parameterNumberName":"U-component_of_WINDS"},"data":[0,0,0,0,0,0,0,0,0,0,0,0,0,0,0,0,0,0,0,0,0,0,0,0,0,0,0,0,0,0,0,0,0,0,0,0,0,0,0,0,0,0,0,0,0,0,0,0,0,0,0,0,0,0,0,0,0,0,-3.2859,-3.2859,0,-3.2912,-3.2913,-3.2913,-3.2781,-3.2776,-3.2772,-3.2768,-3.2824,-3.2829,-3.2834,0,0,0,0,0,0,0,0,0,0,0,0,0,-3.2643,-3.2647,-3.2859,-3.2859,-3.286,-3.2912,-3.2913,-3.2913,-3.2781,-3.2776,-3.2771,-3.2766,-3.2822,-3.2828,-3.2835,0,0,0,0,0,0,0,0,0,0,0,0,0,-3.272,-3.2649,-3.2858,-3.28,-3.2796,-3.2912,-3.2913,-3.2914,-3.2782,-3.2776,-3.277,-3.2764,-3.282,-3.2828,-3.2836,-3.3011,0,0,-3.286,-3.2864,0,0,0,0,0,0,0,0,-3.2716,-3.2729,-3.2808,-3.2805,-3.2799,-3.2833,-3.2857,-3.2946,-3.2784,-3.2788,-3.2768,-3.2761,-3.2832,-3.2839,-3.2863,-3.3014,-3.3016,-3.2861,-3.2866,-3.2869,-3.2872,0,0,0,0,0,0,0,-3.2711,-3.2725,-3.288,-3.281,-3.2804,-3.2772,-3.2776,-3.2873,-3.2844,-3.2787,-3.2777,-3.2785,-3.2829,-3.2855,-3.2863,-3.3017,-3.2861,-3.2868,-3.2873,-3.2876,-3.3316,-3.3322,0,0,0,0,0,0,-3.2713,-3.2722,-3.2878,-3.2881,-3.2742,-3.2781,-3.2785,-3.2829,-3.2843,-3.2839,-3.2791,-3.2779,-3.2844,-3.2854,-3.2864,-3.3071,-3.2869,-3.2877,-3.2882,-3.3309,-3.3317,-3.3324,0,0,0,0,0,0,-3.2709,-3.2728,-3.2876,-3.2799,-3.2815,-3.2791,-3.2841,-3.2833,-3.286,-3.2846,-3.284,-3.2823,-3.284,-3.2853,-3.2976,-3.3072,-3.2881,-3.2888,-3.3301,-3.3311,-3.3321,-3.3487,0,0,0,0,0,0,-3.2703,-3.2727,-3.2794,-3.2802,-3.282,-3.2987,-3.2847,-3.2839,-3.2874,-3.2859,-3.2875,-3.2871,-3.2836,-3.2965,-3.2984,-3.3079,-3.2894,-3.3292,-3.3305,-3.3317,-3.3473,-3.3502,-3.3526,0,0,0,0,0,-3.2696,-3.2838,-3.2798,-3.2817,-3.2902,-3.2992,-3.3003,-3.2959,-3.2882,-3.2949,-3.294,-3.2871,-3.3058,-3.2978,-3.2999,-3.3098,-3.3286,-3.3302,-3.3317,-3.3461,-3.3496,-3.3526,0,0,0,0,0,0,-3.2842,-3.2838,-3.2793,-3.2942,-3.2969,-3.297,-3.3052,-3.2998,-3.3047,-3.3031,-3.2974,-3.2979,-3.3113,-3.3117,-3.3029,-3.3269,-3.3159,-3.3179,-3.3261,-3.3295,-3.3321,-3.3318,-3.2901,0,0,0,0,0,-3.2892,-3.2965,-3.2958,-3.309,-3.3106,-3.3077,-3.3115,-3.3079,-3.3104,-3.3115,-3.3114,-3.3142,-3.3207,-3.3251,-3.3309,-3.3472,-3.3475,-3.3551,-3.3578,-3.36,-3.3618,-3.3706,-3.374,-3.3375,-3.3375,-3.3375,0,0,-3.2995,-3.3002,-3.3052,-3.312,-3.3136,-3.3214,-3.3088,-3.3175,-3.3232,-3.3128,-3.3244,-3.3245,-3.3272,-3.3416,-3.348,-3.3424,-3.372,-3.3619,-3.3637,-3.3644,-3.3726,-3.376,-3.3791,-3.3385,-3.3383,-3.3382,0,0,-3.3223,-3.3235,-3.3347,-3.3367,-3.3393,-3.3373,-3.34,-3.341,-3.3407,-3.3523,-3.3446,-3.3514,-3.3626,-3.3649,-3.3675,-3.3913,-3.3852,-3.3933,-3.4073,-3.416,-3.4189,-3.4214,-3.43,-3.4331,-3.3952,-3.3952,-3.3952,0,-3.3348,-3.3462,-3.3412,-3.3505,-3.3538,-3.3447,-3.356,-3.3581,-3.3626,-3.365,-3.3587,-3.3727,-3.3739,-3.3888,-3.3946,-3.397,-3.3999,-3.3932,-3.4188,-3.4213,-3.4236,-3.4318,-3.435,-3.3962,-3.3961,-3.396,-3.3959,0,-3.3615,-3.3696,-3.3783,-3.3829,-3.3871,-3.3974,-3.394,-3.3988,-3.3949,-3.3936,-3.4056,-3.4066,-3.4126,-3.4158,-3.412,-3.4303,-3.4268,-3.4198,-3.4086,-3.4282,-3.4357,-3.4388,-3.3976,-3.3972,-3.397,-3.3967,0,0,-3.3937,-3.3954,-3.3987,-3.4007,-3.403,-3.4091,-3.419,-3.4249,-3.4293,-3.4326,-3.4409,-3.4506,-3.4442,-3.4472,-3.4436,-3.4511,-3.4701,-3.4432,-3.4432,-3.4483,-3.4904,-3.4957,-3.4994,-3.466,-3.4666,-3.467,-3.4902,0,-3.4164,-3.4334,-3.4292,-3.4461,-3.4535,-3.445,-3.4536,-3.456,-3.4551,-3.4613,-3.4602,-3.4673,-3.4582,-3.46,-3.4671,-3.4663,-3.4785,-3.4645,-3.4737,-3.4741,-3.4735,-3.5033,-3.509,-3.5308,-3.4931,-3.4936,-3.494,0,-3.445,-3.4496,-3.4673,-3.4684,-3.4713,-3.4792,-3.4843,-3.4903,-3.4928,-3.4916,-3.495,-3.4899,-3.4998,-3.4885,-3.502,-3.4927,-3.4961,-3.4964,-3.4971,-3.4979,-3.4853,-3.5051,-3.5376,-3.541,-3.4985,-3.4982,-3.4979,0,-3.4669,-3.4774,-3.4894,-3.4913,-3.4929,-3.4987,-3.4996,-3.5015,-3.5054,-3.5098,-3.5122,-3.5178,-3.5209,-3.5253,-3.5219,-3.514,-3.5361,-3.5245,-3.5355,-3.5356,-3.5406,-3.5404,-3.5744,-3.5427,-3.5427,-3.5426,-3.5425,0,-3.4927,-3.5039,-3.4992,-3.5066,-3.5189,-3.514,-3.5263,-3.5262,-3.528,-3.5353,-3.5282,-3.5352,-3.5302,-3.5368,-3.5341,-3.5459,-3.5473,-3.5466,-3.5458,-3.5474,-3.5475,-3.5497,-3.5481,-3.5435,-3.5433,-3.5431,-3.543,0,-3.5192,-3.5166,-3.5291,-3.5296,-3.53,-3.5391,-3.5395,-3.5464,-3.5449,-3.5542,-3.5561,-3.5539,-3.5613,-3.5583,-3.5661,-3.5643,-3.5794,-3.5765,-3.5786,-3.5779,-3.5891,-3.5882,-3.6258,-3.6305,-3.5958,-3.5961,-3.5964,0,-3.5359,-3.5443,-3.5458,-3.5501,-3.5516,-3.5587,-3.5626,-3.5581,-3.5624,-3.566,-3.5725,-3.5792,-3.5844,-3.5966,-3.5957,-3.6017,-3.599,-3.6118,-3.5998,-3.6012,-3.5994,-3.599,-3.5998,-3.6142,-3.6146,-3.6149,-3.6152,0,-3.5658,-3.5641,-3.57,-3.5755,-3.5804,-3.5845,-3.5879,-3.5919,-3.5876,-3.5928,-3.6003,-3.6043,-3.6123,-3.6192,-3.6245,-3.6255,-3.6198,-3.619,-3.6219,-3.6236,-3.6245,-3.6243,-3.5852,-3.6181,-3.6179,-3.6176,-3.6175,-3.6174,-3.588,-3.5951,-3.5973,-3.6041,-3.6063,-3.6097,-3.6163,-3.6157,-3.6218,-3.628,-3.6249,-3.6337,-3.6361,-3.6426,-3.6444,-3.6512,-3.6462,-3.6504,-3.6514,-3.6526,-3.6541,-3.6233,-3.6521,-3.652,-3.652,-3.6519,-3.6518,0,-3.6177,-3.6187,-3.625,-3.6301,-3.6355,-3.6296,-3.6332,-3.6381,-3.6459,-3.6486,-3.6538,-3.6625,-3.6691,-3.6688,-3.675,-3.6805,-3.678,-3.6823,-3.6819,-3.6822,-3.6582,-3.6551,-3.6842,-3.6842,-3.6842,-3.6842,-3.6841,-3.6841,-3.6337,-3.6455,-3.6441,-3.6569,-3.6578,-3.6663,-3.6689,-3.6721,-3.6742,-3.6842,-3.6897,-3.6894,-3.691,-3.6972,-3.7031,-3.7028,-3.7055,-3.7108,-3.7096,-3.6871,-3.6839,-3.6808,-3.678,-3.7113,-3.7114,-3.733,-3.7332,-3.7334]},{"header":{"parameterUnit":"m.s-1","parameterCategory":1,"la1":30.2991,"la2":30.254,"lo1":-89.0895,"lo2":-89.0444,"dy":0.0017,"dx":0.0017,"nx":28,"ny":28,"refTime":"2023-09-28T21:00:00:Z","depth":0,"parameterNumber":3,"parameterNumberName":"V-component_of_WINDS"},"data":[0,0,0,0,0,0,0,0,0,0,0,0,0,0,0,0,0,0,0,0,0,0,0,0,0,0,0,0,0,0,0,0,0,0,0,0,0,0,0,0,0,0,0,0,0,0,0,0,0,0,0,0,0,0,0,0,0,0,-2.4218,-2.4218,0,-2.4237,-2.4237,-2.4237,-2.4229,-2.4228,-2.4228,-2.4228,-2.4245,-2.4246,-2.4247,0,0,0,0,0,0,0,0,0,0,0,0,0,-2.4173,-2.4174,-2.4218,-2.4218,-2.4219,-2.4237,-2.4237,-2.4237,-2.4229,-2.4228,-2.4228,-2.4227,-2.4245,-2.4246,-2.4247,0,0,0,0,0,0,0,0,0,0,0,0,0,-2.4192,-2.4174,-2.4218,-2.4217,-2.4217,-2.4237,-2.4237,-2.4237,-2.4229,-2.4228,-2.4228,-2.4227,-2.4245,-2.4246,-2.4247,-2.427,0,0,-2.4252,-2.4252,0,0,0,0,0,0,0,0,-2.4191,-2.4194,-2.4217,-2.4217,-2.4217,-2.423,-2.4228,-2.4248,-2.4229,-2.4224,-2.4228,-2.4227,-2.4241,-2.4242,-2.4247,-2.427,-2.4271,-2.4252,-2.4253,-2.4253,-2.4254,0,0,0,0,0,0,0,-2.419,-2.4193,-2.4225,-2.4217,-2.4217,-2.4214,-2.4216,-2.4231,-2.4236,-2.4225,-2.4224,-2.4227,-2.4241,-2.4246,-2.4248,-2.4271,-2.4252,-2.4253,-2.4254,-2.4254,-2.4311,-2.4312,0,0,0,0,0,0,-2.4189,-2.4192,-2.4225,-2.4226,-2.4202,-2.4216,-2.4218,-2.4226,-2.4236,-2.4237,-2.4227,-2.4226,-2.4244,-2.4246,-2.4248,-2.4273,-2.4253,-2.4254,-2.4255,-2.431,-2.4311,-2.4312,0,0,0,0,0,0,-2.4188,-2.4192,-2.4224,-2.4209,-2.4213,-2.4217,-2.4227,-2.4227,-2.4233,-2.4238,-2.4238,-2.4232,-2.4244,-2.4246,-2.4264,-2.4274,-2.4255,-2.4256,-2.4309,-2.431,-2.4311,-2.4324,0,0,0,0,0,0,-2.4186,-2.4191,-2.4201,-2.4209,-2.4214,-2.424,-2.4227,-2.4228,-2.4235,-2.4234,-2.4242,-2.4243,-2.4243,-2.4262,-2.4265,-2.4275,-2.4257,-2.4309,-2.431,-2.4311,-2.4323,-2.4325,-2.4328,0,0,0,0,0,-2.4185,-2.4204,-2.4201,-2.4205,-2.4225,-2.4241,-2.4243,-2.4243,-2.4236,-2.4244,-2.4247,-2.4243,-2.4272,-2.4264,-2.4267,-2.4278,-2.4308,-2.431,-2.4311,-2.4322,-2.4325,-2.4328,0,0,0,0,0,0,-2.4196,-2.4205,-2.4202,-2.4224,-2.4232,-2.4239,-2.4251,-2.4247,-2.4257,-2.4255,-2.4255,-2.4256,-2.4274,-2.4278,-2.4268,-2.4299,-2.4289,-2.4291,-2.4296,-2.4299,-2.4301,-2.4299,-2.4258,0,0,0,0,0,-2.4202,-2.4214,-2.4221,-2.424,-2.4243,-2.4246,-2.4253,-2.4252,-2.426,-2.4263,-2.4268,-2.4275,-2.4285,-2.4292,-2.4302,-2.4323,-2.4324,-2.4332,-2.4335,-2.4337,-2.4338,-2.4348,-2.4351,-2.4317,-2.4317,-2.4317,0,0,-2.4213,-2.4219,-2.4227,-2.4242,-2.4248,-2.426,-2.4249,-2.4263,-2.4271,-2.4265,-2.4281,-2.4285,-2.4293,-2.4311,-2.432,-2.4315,-2.4348,-2.4339,-2.434,-2.4341,-2.435,-2.4353,-2.4356,-2.4318,-2.4318,-2.4318,0,0,-2.4238,-2.4245,-2.426,-2.4266,-2.4274,-2.4276,-2.4279,-2.4287,-2.4289,-2.4305,-2.43,-2.431,-2.4329,-2.4334,-2.4339,-2.4364,-2.436,-2.4368,-2.438,-2.4389,-2.4392,-2.4394,-2.4402,-2.4404,-2.437,-2.437,-2.437,0,-2.425,-2.4269,-2.4269,-2.4282,-2.4288,-2.4283,-2.4297,-2.4303,-2.4314,-2.4318,-2.4313,-2.4335,-2.434,-2.4359,-2.4364,-2.4369,-2.4372,-2.4366,-2.4392,-2.4394,-2.4396,-2.4403,-2.4406,-2.437,-2.437,-2.437,-2.437,0,-2.4282,-2.4295,-2.4307,-2.4317,-2.4325,-2.4339,-2.4339,-2.4347,-2.4345,-2.4346,-2.4362,-2.4368,-2.4378,-2.4383,-2.4381,-2.4401,-2.4397,-2.4392,-2.4382,-2.44,-2.4407,-2.4409,-2.4371,-2.4371,-2.4371,-2.4371,0,0,-2.4317,-2.4326,-2.433,-2.4334,-2.4342,-2.4351,-2.4364,-2.4374,-2.438,-2.4387,-2.4397,-2.4412,-2.4407,-2.4412,-2.4411,-2.4419,-2.4437,-2.4413,-2.4413,-2.4416,-2.4457,-2.446,-2.4463,-2.4434,-2.4435,-2.4435,-2.4455,0,-2.4342,-2.4365,-2.4364,-2.4385,-2.4396,-2.439,-2.4401,-2.4406,-2.4408,-2.4416,-2.4418,-2.4428,-2.4421,-2.4424,-2.4431,-2.4433,-2.4445,-2.4432,-2.4442,-2.4442,-2.4439,-2.4467,-2.4471,-2.449,-2.4458,-2.4459,-2.4459,0,-2.4375,-2.4383,-2.4405,-2.4409,-2.4414,-2.4424,-2.4431,-2.444,-2.4445,-2.4446,-2.4451,-2.4448,-2.446,-2.445,-2.4465,-2.4456,-2.446,-2.4462,-2.4462,-2.4463,-2.4451,-2.4467,-2.4496,-2.4499,-2.4463,-2.4463,-2.4463,0,-2.4396,-2.4412,-2.4427,-2.443,-2.4436,-2.4443,-2.4446,-2.4451,-2.4456,-2.4463,-2.4466,-2.4474,-2.4478,-2.4484,-2.4483,-2.4476,-2.4498,-2.4488,-2.4497,-2.4497,-2.4502,-2.4502,-2.4531,-2.4506,-2.4506,-2.4506,-2.4506,0,-2.4423,-2.4437,-2.4436,-2.4445,-2.4459,-2.4457,-2.4471,-2.4473,-2.4477,-2.4485,-2.4481,-2.4488,-2.4487,-2.4494,-2.4493,-2.4505,-2.4508,-2.4507,-2.4507,-2.4507,-2.4507,-2.4509,-2.4508,-2.4507,-2.4507,-2.4507,-2.4507,0,-2.4449,-2.445,-2.4465,-2.4469,-2.447,-2.448,-2.4483,-2.4491,-2.4491,-2.4502,-2.4504,-2.4504,-2.4513,-2.4512,-2.4522,-2.4521,-2.4535,-2.4534,-2.4534,-2.4533,-2.4542,-2.454,-2.4573,-2.4577,-2.455,-2.4551,-2.4551,0,-2.4467,-2.4477,-2.4481,-2.4486,-2.4489,-2.4498,-2.4503,-2.4501,-2.4506,-2.4512,-2.4518,-2.4526,-2.4533,-2.4546,-2.4547,-2.4554,-2.4551,-2.4562,-2.4553,-2.4552,-2.455,-2.4549,-2.4549,-2.4564,-2.4565,-2.4565,-2.4565,0,-2.4497,-2.4496,-2.4503,-2.451,-2.4516,-2.4521,-2.4526,-2.4531,-2.4529,-2.4535,-2.4543,-2.4548,-2.4557,-2.4564,-2.457,-2.4572,-2.4568,-2.4568,-2.457,-2.4571,-2.4569,-2.4569,-2.4538,-2.4567,-2.4567,-2.4567,-2.4567,-2.4567,-2.4518,-2.4526,-2.4529,-2.4537,-2.454,-2.4545,-2.4551,-2.4552,-2.4559,-2.4566,-2.4564,-2.4573,-2.4577,-2.4584,-2.4587,-2.4593,-2.4589,-2.4593,-2.4593,-2.4594,-2.4595,-2.4569,-2.4594,-2.4594,-2.4594,-2.4594,-2.4594,0,-2.4547,-2.4548,-2.4555,-2.4562,-2.4567,-2.4563,-2.4567,-2.4572,-2.458,-2.4584,-2.4589,-2.4598,-2.4604,-2.4605,-2.4611,-2.4616,-2.4614,-2.4617,-2.4617,-2.4617,-2.4599,-2.4595,-2.4619,-2.4619,-2.4619,-2.4619,-2.4619,-2.4619,-2.4562,-2.4574,-2.4573,-2.4586,-2.4588,-2.4596,-2.4599,-2.4602,-2.4605,-2.4614,-2.4619,-2.462,-2.4622,-2.4628,-2.4633,-2.4633,-2.4635,-2.4639,-2.4638,-2.4621,-2.4618,-2.4616,-2.4613,-2.464,-2.464,-2.4656,-2.4656,-2.4656]}]]